{"data":{"norad_id":59356,"epoch":"2026-09-21T07:00:04.209696Z","epoch_age_seconds":93822,"freshness":"FRESH","line1":"1 59356U 24060J   26264.29171539 -.00000281  00000+0 -71255-6 0  9995","line2":"2 59356  43.0000 235.5550 0000894 281.5750  78.5002 15.27579333139977","mean_motion":15.27579333,"eccentricity":8.94e-5,"inclination_deg":43,"raan_deg":235.555,"arg_perigee_deg":281.575,"mean_anomaly_deg":78.5002,"bstar":-7.1255e-7,"rev_number":13997,"period_min":94.266789874147,"perigee_km":482.43770306279,"apogee_km":483.66448349387,"semimajor_km":6861.1880932783,"source":"CELESTRAK","updated_at":"2026-09-22T09:00:48.904511Z"}}